Location: Eckley
(40.9930°N, 75.8630°W)
Time: 14:27:19
(UTC-04:00)

Daily predictions for brighter satellites

Satellite Brightness Start Highest point End
(mag) Time Altitude Azimuth Time Altitude Azimuth Time Altitude Azimuth
USA 238 DEB 3.8 20:39:48 10° SSW 20:46:24 54° ESE 20:53:08 10° NE
USA 238 3.8 20:39:55 10° SSW 20:46:31 53° ESE 20:53:13 10° NE
Meteor 2-12 Rocket 4.5 20:41:46 10° S 20:47:48 75° E 20:53:55 10° N
Resurs 1-3 3.7 20:45:00 10° SSE 20:49:19 67° ENE 20:53:41 10° N
Cosmos 1980 Rocket 2.7 20:44:08 10° NNW 20:49:36 47° ENE 20:55:03 10° SE
Cosmos 1500 3.7 20:46:09 10° N 20:49:51 44° E 20:53:34 10° SSE
Shenzhou-11 Module 1.8 20:47:31 10° WSW 20:50:29 79° SSE 20:53:28 10° ENE
BREEZE-M R/B 3.2 20:47:43 10° SW 20:52:49 43° SSE 20:55:44 10° ENE
ISS -2.6 20:51:34 10° S 20:54:12 23° SE 20:56:50 10° E
Cosmos 1812 2.8 20:56:28 10° S 21:00:18 82° W 21:04:10 10° N
YAOGAN 6 3.3 20:57:46 10° S 21:01:25 57° W 21:05:05 10° NNW
Cosmos 1802 Rocket 4.1 20:57:28 10° S 21:03:46 87° W 21:10:12 10° N
Cosmos 1833 Rocket 3.5 20:59:01 10° SW 21:04:33 58° WNW 21:10:08 10° NNE
Cosmos 1666 4.2 21:01:45 10° NNE 21:04:47 21° ENE 21:07:35 11° ESE
Cosmos 1743 4.3 21:03:09 10° NNE 21:06:02 20° ENE 21:08:39 11° ESE
H-2A R/B 3.2 21:03:42 10° ESE 21:07:44 26° ENE 21:11:50 10° N
Cosmos 304 Rocket 4.2 21:04:24 10° S 21:08:55 41° ESE 21:13:27 10° NNE
DNEPR-1 R/B 3.9 21:05:57 10° S 21:09:55 43° ESE 21:14:17 10° NE
Abrixas rocket 3.8 21:12:31 10° S 21:14:35 16° SE 21:15:55 13° ESE
Cosmos 2208 Rocket 4.4 21:13:51 10° S 21:18:41 41° ESE 21:23:32 10° NNE
ERS-2 3.3 21:15:27 10° S 21:18:58 43° W 21:22:31 10° NNW
ATLAS CENTAUR R/B 1.7 21:14:30 10° NNW 21:19:03 75° ENE 21:23:09 14° SE
SL-24 R/B 4.5 21:15:29 10° S 21:20:19 85° W 21:25:28 10° N
NOSS 3-2 (A) 3.5 21:14:48 10° SSW 21:20:25 52° ESE 21:26:36 10° NE
Cosmos 1898 Rocket 4.5 21:16:35 10° N 21:21:21 33° ENE 21:25:14 14° ESE
USA 234 3.5 21:14:56 10° NE 21:21:31 79° NW 21:28:05 10° SW
NOSS 3-2 (C) 3.8 21:18:29 10° S 21:23:50 39° ESE 21:29:40 10° NE
Okean 1 Rocket 3.0 21:20:59 10° N 21:25:21 70° E 21:29:27 11° SSE
Cosmos 1975 Rocket 3.8 21:22:29 12° SSE 21:25:54 33° E 21:29:47 10° NNE
Cosmos 1242 Rocket 3.7 21:23:14 10° NNE 21:26:26 27° ENE 21:28:22 17° ESE
Cosmos 1674 Rocket 4.1 21:22:35 10° SSW 21:26:59 64° W 21:31:27 10° N
Cosmos 1378 Rocket 3.4 21:23:03 10° S 21:27:21 76° E 21:31:41 10° N
Cosmos 2233 Rocket 4.1 21:22:21 10° SSE 21:28:18 56° E 21:34:20 10° NNE
Resurs 01 Rocket 2.7 21:26:52 10° S 21:31:04 44° W 21:35:17 10° NNW
Atlas Centaur 2 2.8 21:29:17 10° SW 21:31:30 15° S 21:32:11 15° SSE
ERS-1 Rocket 3.8 21:28:00 15° SE 21:31:31 36° ENE 21:36:04 10° N
MetOp-A 4.3 21:27:26 14° SSE 21:31:59 56° ENE 21:37:14 10° N
Tiangong 2 1.9 21:30:25 10° SW 21:33:11 29° SSE 21:34:27 21° ESE
Cosmos 2082 Rocket 3.9 21:29:32 10° SW 21:34:45 38° WNW 21:40:02 10° N
Cosmos 1975 2.9 21:31:17 10° N 21:35:18 61° E 21:38:13 17° SSE
COSMOS 2487 3.1 21:33:48 10° SSW 21:37:14 56° WNW 21:40:42 10° N
Cosmos 2322 Rocket 3.0 21:33:10 10° N 21:38:22 37° ENE 21:42:00 18° ESE
Meteor 1-12 Rocket 4.4 21:36:36 10° N 21:42:31 66° ENE 21:47:14 17° SSE
SL-16 R/B 2.8 21:39:27 10° NNW 21:44:53 44° ENE 21:48:26 20° ESE
Timation 2 Rocket 3.9 21:44:22 10° S 21:50:12 60° ESE 21:56:09 10° NNE
ARGOS 3.1 21:49:16 16° SSE 21:53:35 89° ENE 21:59:01 10° NNW
Meteor 1-19 Rocket 4.3 21:49:44 10° S 21:55:34 68° E 22:01:28 10° NNE
SPOT 5 3.5 21:54:03 23° ESE 21:55:57 34° ENE 22:00:00 10° N
CENTAUR R/B 3.1 21:55:22 21° SSE 21:58:16 31° ESE 22:03:53 10° NE
GPS 2-04 Rocket1 3.9 21:54:50 10° WSW 21:58:35 30° SSW 21:59:43 26° SSE
SJ 16-02 3.5 22:01:02 10° NNE 22:03:28 14° ENE 22:05:00 12° E
Helios 1A 3.4 22:03:55 31° ESE 22:05:27 45° ENE 22:09:26 10° N
ATLAS 3B R/B 3.4 22:00:55 10° SW 22:08:00 59° NW 22:14:50 10° NNE
Cosmos 1464 Rocket 4.2 22:09:53 24° SSE 22:13:39 55° E 22:19:51 10° NNE
USA 32 4.0 22:12:18 10° N 22:17:33 72° E 22:20:04 31° SSE
Cosmos 2084 3.3 22:17:48 19° SSW 22:20:48 62° ESE 22:24:52 10° NE
Terra 2.8 22:20:00 27° ESE 22:21:23 33° ENE 22:25:37 10° N
Lacrosse 5 rocket 3.6 22:22:05 10° NNW 22:25:14 19° NNE 22:27:54 12° ENE
USA 245 3.0 22:25:00 51° SSW 22:25:37 68° W 22:29:23 10° NNW
Cosmos 468 Rocket 4.5 22:20:31 10° SSW 22:25:44 61° WNW 22:30:57 10° NNE
Cosmos 1937 Rocket 3.4 22:20:40 10° NNW 22:25:50 85° ENE 22:27:55 37° SSE
Meteor 1-23 Rocket 4.4 22:24:26 34° SE 22:26:28 50° E 22:31:49 10° NNE
Shenzhou-11 Module 2.4 22:23:41 10° W 22:26:38 57° N 22:26:59 52° NE
Aureole 2 Rocket 3.4 22:24:19 10° N 22:26:40 29° NE 22:26:40 29° NE
ISS -2.5 22:27:24 10° WSW 22:30:30 41° NNW 22:33:39 10° NE
Cosmos 2360 Rocket 2.8 22:25:34 10° N 22:30:57 43° ENE 22:33:03 31° ESE
CARTOSAT-1 4.0 22:31:49 40° ESE 22:32:36 45° ENE 22:36:43 10° N
Cosmos 1891 Rocket 4.5 22:29:27 30° SSE 22:32:38 68° E 22:38:54 10° NNE
CZ-4C R/B 4.3 22:27:21 10° NNW 22:33:08 27° NE 22:39:07 11° E
Cosmos 1980 Rocket 4.0 22:28:47 10° NW 22:33:16 25° WSW 22:37:31 11° SSW
Cosmos 2219 Rocket 4.2 22:33:49 10° N 22:37:13 16° NE 22:40:01 12° E
Meteor 2-9 Rocket 4.2 22:32:58 10° NNW 22:38:17 73° W 22:40:44 33° S
Cosmos 1763 Rocket 3.6 22:34:07 14° SSW 22:38:41 75° WNW 22:44:00 10° NNE
Cosmos 841 Rocket 3.4 22:37:55 31° S 22:40:30 80° ESE 22:45:47 10° NNE
Cosmos 540 Rocket 3.7 22:41:48 44° SE 22:42:27 47° ESE 22:47:24 10° NNE
SPOT 1/Viking Rocket 3.5 22:40:44 40° S 22:42:42 83° WSW 22:47:54 10° NNW
Cosmos 2333 Rocket 4.3 22:39:20 10° N 22:42:52 16° NE 22:45:46 12° E
Okean 2 4.1 22:45:24 38° ENE 22:45:24 38° ENE 22:48:57 10° NNE
COSMOS 2428 4.2 22:41:59 10° N 22:46:39 25° NE 22:48:47 20° E
H-2A R/B 3.2 22:44:13 20° SSW 22:46:59 35° W 22:51:33 10° NNW
CZ-2C R/B 3.5 22:42:39 10° NNE 22:47:40 32° E 22:47:57 32° ESE
DMSP B5D2-2 4.4 22:43:23 10° N 22:48:38 66° WNW 22:52:04 22° SSW
Meteor 2-4 Rocket 4.1 22:45:41 20° SSW 22:49:26 60° WNW 22:54:55 10° N
Abrixas rocket 4.3 22:47:28 10° WSW 22:48:34 19° WSW 22:48:34 19° WSW
Helios 1B rocket 2.4 22:47:44 10° N 22:51:53 79° WNW 22:52:46 54° SSW
Cosmos 1340 Rocket 3.3 22:51:32 40° SW 22:52:41 58° W 22:56:43 10° N
IGS 5A 3.3 22:53:25 72° SE 22:53:45 80° ENE 22:57:56 10° N
Cosmos 1356 Rocket 4.3 22:55:31 36° ENE 22:55:31 36° ENE 22:58:53 10° NNE
Cosmos 1455 Rocket 3.6 22:50:44 10° NNW 22:54:58 51° W 22:56:06 40° SW
Cosmos 1833 4.1 22:53:11 36° S 22:55:36 77° ESE 23:01:19 10° NNE
ATLAS CENTAUR R/B 4.1 22:55:29 10° W 22:57:32 13° WSW 22:59:24 10° SW
Cosmos 1025 Rocket 3.5 22:59:55 46° ENE 22:59:55 46° ENE 23:03:45 10° NNE
Cosmos 372 Rocket 4.4 22:55:33 10° N 23:00:31 47° ENE 23:01:22 43° E
Cosmos 1356 4.1 23:02:49 49° W 23:02:50 49° WNW 23:06:13 10° N
Spot 1 3.9 23:04:57 68° SW 23:05:12 71° WSW 23:09:18 10° NNW
Tiangong 2 4.0 23:06:35 10° W 23:06:45 11° W 23:06:45 11° W
BREEZE M DEB (TANK) 3.3 23:07:14 10° WNW 23:13:13 40° WSW 23:13:13 40° WSW
Meteor 1-29 3.8 23:10:26 10° N 23:13:38 48° WNW 23:13:38 48° WNW
Cosmos 2322 3.8 23:08:13 10° NNW 23:13:57 70° ENE 23:15:05 55° ESE
Meteor 1-15 Rocket 4.3 23:09:32 10° NNW 23:15:18 72° W 23:16:45 50° SSW
Cosmos 1125 Rocket 3.6 23:11:36 10° NNW 23:16:50 61° ENE 23:17:27 56° E
Okean 1-7 Rocket 4.4 23:18:10 39° ENE 23:18:10 39° ENE 23:21:49 10° NNE
Cosmos 2227 Rocket 4.4 23:21:10 11° E 23:21:10 11° E 23:21:56 10° ENE
Cosmos 2322 Rocket 3.4 23:17:24 10° NW 23:22:16 31° WSW 23:23:50 27° SW
Cosmos 1092 Rocket 4.0 23:16:59 10° N 23:23:22 72° E 23:24:43 55° SE
Cosmos 1066 Rocket 3.9 23:24:23 68° SE 23:24:48 71° E 23:30:12 10° NNE
Cosmos 2237 Rocket 4.1 23:21:29 10° N 23:25:31 19° NE 23:27:50 15° E
SL-16 R/B 3.7 23:24:05 10° NW 23:28:42 26° WSW 23:30:19 23° SW
Nadezhda 4 Rocket 4.1 23:23:47 10° NNW 23:30:03 70° W 23:31:47 49° SSW
Cosmos 836 Rocket 4.4 23:31:57 66° SW 23:32:40 81° WNW 23:37:54 10° NNE
SPOT 5 4.5 23:33:17 20° WSW 23:34:08 21° W 23:37:30 10° NW
Cosmos 2237 4.1 23:34:26 10° NNW 23:40:10 75° WSW 23:40:45 68° SSW
CZ-2C R/B 3.3 23:41:02 55° SW 23:41:38 59° W 23:47:05 10° NNW
SJ 16-02 1.8 23:38:05 10° NNW 23:42:00 54° WNW 23:42:00 54° WNW
Cosmos 2219 3.5 23:44:28 53° E 23:44:28 53° E 23:49:41 10° NNE
ADEOS Rocket 4.2 23:40:45 10° NE 23:44:21 22° E 23:44:21 22° E
CENTAUR R/B 3.3 23:42:42 10° WSW 23:48:31 49° NW 23:55:15 10° NNE
Cosmos 1726 Rocket 4.2 23:44:43 10° N 23:48:18 50° NE 23:48:18 50° NE
Mayak 0.6 23:47:59 10° NE 23:50:06 23° ENE 23:50:06 23° ENE
Cosmos 2058 Rocket 4.0 23:48:23 10° N 23:52:00 41° NE 23:52:00 41° NE
